Flag for Switzerland Weather past 2 weeks in Liestal, Basel-Land, Switzerland

Now
52 °F

Cool.


Feels Like: 52 °F
Forecast: 53 / 69 °F
Wind: 1 mph from North

Location: Bale-Mulhouse

Current Time: Sep 2, 2015 at 7:03:29 AM

Latest Report: Sep 2, 2015 at 6:00 AM


Visibility: 5 mi

Pressure: 30.04 "Hg

Humidity: 100%

Dew point: 52 °F

Location of LiestalLocation

Historic Weather in Liestal — Graph

°F

Liestal temperature yesterday

Maximum temperature yesterday: 79 °F (at 12:00 PM)
Minimum temperature yesterday: 61 °F (at 11:30 PM)
Average temperature yesterday: 69 °F

Past Weeks' High & Low Weather Summary

 TemperatureHumidityPressure
High93 °F (Aug 30, 4:00 PM)100% (Aug 18, 7:00 AM)30.24 "Hg (Aug 18, 7:00 AM)
Low48 °F (Aug 20, 6:30 AM)23% (Aug 30, 5:00 PM)29.71 "Hg (Aug 24, 5:00 AM)
Average68 °F70%30.03 "Hg
* Reported Aug 18 5:00 AM — Sep 2 5:30 AM, Liestal, Weather by CustomWeather, © 2015

Note: Actual official high and low records may vary slightly from our data, if they occured in-between our weather recording intervals... More about our weather records

Advertising

Liestal weather history for previous 24 hours

 ConditionsComfort  
Time TempWeatherWind HumidityBarometerVisibility
5:30 AM
Wed, Sep 2
54 °FFog.No wind100%30.07 "Hg2 mi
5:00 AM54 °FFog.2 mph100%30.07 "Hg2 mi
4:30 AM55 °FPassing clouds.No wind94%30.07 "HgN/A
4:00 AM54 °FPassing clouds.2 mph100%30.07 "HgN/A
3:30 AM54 °FDense fog.No wind100%30.07 "Hg1 mi
3:00 AM55 °FFog.No wind94%30.07 "Hg2 mi
2:30 AM57 °FClear.1 mph94%30.07 "HgN/A
2:00 AM59 °FPassing clouds.1 mph94%30.09 "HgN/A
1:30 AM59 °FMostly cloudy.No wind94%30.09 "HgN/A
1:00 AM59 °FPassing clouds.3 mph94%30.09 "HgN/A
11:30 PM
Tue, Sep 1
61 °FPartly cloudy.No wind94%30.07 "HgN/A
11:00 PM63 °FPartly cloudy.5 mph88%30.07 "HgN/A
10:30 PM63 °FPartly cloudy.3 mph94%30.07 "HgN/A
10:00 PM63 °FPartly cloudy.3 mph88%30.07 "HgN/A
9:30 PM64 °FPartly cloudy.6 mph88%30.07 "HgN/A
9:00 PM63 °FBroken clouds.5 mph94%30.07 "HgN/A
8:30 PM64 °FPartly sunny.5 mph88%30.04 "HgN/A
8:00 PM64 °FPartly sunny.3 mph88%30.04 "HgN/A
7:30 PM64 °FPartly sunny.7 mph88%30.04 "HgN/A
7:00 PM64 °FRain showers. Broken clouds.12 mph88%30.01 "HgN/A
6:30 PM66 °FPartly sunny.14 mph83%30.01 "HgN/A
6:00 PM66 °FLight rain. Partly sunny.12 mph88%29.98 "HgN/A
5:00 PM66 °FLight rain. Broken clouds.12 mph88%29.98 "HgN/A
4:45 PM66 °FLight rain. Broken clouds.14 mph88%29.98 "HgN/A
4:00 PM70 °FBroken clouds.13 mph73%29.95 "HgN/A
3:30 PM70 °FSprinkles. Partly sunny.15 mph73%29.92 "HgN/A
3:00 PM73 °FPartly sunny.13 mph65%29.92 "HgN/A
2:30 PM73 °FPartly sunny.13 mph65%29.92 "HgN/A
2:00 PM77 °FBroken clouds.9 mph54%29.89 "HgN/A
1:30 PM79 °FBroken clouds.7 mph51%29.89 "HgN/A
1:00 PM77 °FBroken clouds.9 mph54%29.89 "HgN/A
12:30 PM77 °FBroken clouds.9 mph54%29.89 "HgN/A
12:00 PM79 °FBroken clouds.7 mph54%29.89 "HgN/A
11:30 AM75 °FBroken clouds.9 mph61%29.89 "HgN/A
11:00 AM73 °FBroken clouds.5 mph65%29.89 "HgN/A
10:00 AM70 °FLight rain. Broken clouds.6 mph78%29.89 "HgN/A
9:30 AM70 °FBroken clouds.5 mph73%29.86 "HgN/A
9:00 AM70 °FBroken clouds.1 mph73%29.86 "HgN/A
8:30 AM70 °FSunny.3 mph69%29.86 "Hg10 mi
8:00 AM70 °FPassing clouds.6 mph69%29.83 "HgN/A
7:30 AM70 °FClear.7 mph69%29.83 "Hg10 mi
7:00 AM70 °FPassing clouds.6 mph69%29.83 "HgN/A
Weather by CustomWeather, © 2015

See weather overviewHow to use our weather pages